DW9499 Weather Reports


time (UTC)temp
C
wind
direction
speed
KPH
gust
KPH
rain 1hr
cm
rain 24hr
cm
rain mn
cm
humidity
%
barometer
mb
20260507144551 9 240 1.6 17.7 0.00 0.00 0.00 75 1018.4
20260507143046 8 243 0.0 9.7 0.00 0.00 0.00 77 1018.5
20260507141551 8 257 0.0 9.7 0.00 0.00 0.00 79 1018.5
20260507140038 7 244 0.0 8.0 0.00 0.00 0.00 80 1018.6
20260507134532 6 237 0.0 8.0 0.00 0.00 0.00 84 1018.5
20260507133029 5 226 0.0 6.4 0.00 0.00 0.00 87 1018.6
20260507131530 4 250 0.0 6.4 0.00 0.00 0.00 88 1018.9
20260507130120 3 251 0.0 11.3 0.00 0.00 0.00 89 1018.9
20260507124519 2 263 0.0 6.4 0.00 0.00 0.00 90 1019.2
20260507123016 2 243 0.0 8.0 0.00 0.00 0.00 91 1019.2
20260507121516 2 243 0.0 9.7 0.00 0.00 0.00 91 1019.4
20260507120035 2 234 0.0 6.4 0.00 0.00 0.00 92 1019.3
20260507114513 1 246 0.0 4.8 0.00 0.00 0.00 93 1019.3
20260507113033 1 252 0.0 4.8 0.00 0.00 0.00 93 1019.4
20260507111512 1 246 0.0 6.4 0.00 0.00 0.00 93 1019.4
20260507110011 1 250 0.0 8.0 0.00 0.00 0.00 93 1019.7
20260507104506 1 243 0.0 3.2 0.00 0.00 0.00 93 1019.9
20260507103008 1 245 0.0 3.2 0.00 0.00 0.00 93 1020.0
20260507101502 1 235 0.0 3.2 0.00 0.00 0.00 93 1020.2
20260507100105 1 257 0.0 3.2 0.00 0.00 0.00 93 1020.4
20260507094559 1 239 0.0 4.8 0.00 0.00 0.00 93 1020.5
20260507093056 1 245 0.0 6.4 0.00 0.00 0.00 93 1020.8
20260507091554 1 219 0.0 3.2 0.00 0.00 0.00 93 1020.6
20260507090055 1 224 0.0 4.8 0.00 0.00 0.00 93 1020.8
20260507084550 1 245 0.0 6.4 0.00 0.00 0.00 93 1020.9
20260507083048 1 242 0.0 3.2 0.00 0.00 0.00 93 1021.1
20260507081548 2 221 0.0 3.2 0.00 0.00 0.00 93 1021.3
20260507080043 2 229 0.0 4.8 0.00 0.00 0.00 93 1021.6
20260507074542 2 271 0.0 3.2 0.00 0.00 0.00 93 1021.9
20260507073046 2 264 0.0 3.2 0.00 0.00 0.00 93 1022.0
20260507071538 2 232 0.0 3.2 0.00 0.00 0.00 93 1022.1
20260507070040 2 230 0.0 1.6 0.00 0.00 0.00 93 1022.4
20260507064542 2 208 0.0 3.2 0.00 0.00 0.00 92 1022.5
20260507063035 2 240 0.0 1.6 0.00 0.00 0.00 92 1022.8
20260507061536 2 242 0.0 1.6 0.00 0.00 0.00 92 1022.7
20260507060026 2 251 0.0 1.6 0.00 0.00 0.00 92 1022.8
20260507053005 3 222 0.0 4.8 0.00 0.00 0.00 92 1023.1
20260507051502 3 259 0.0 3.2 0.00 0.00 0.00 92 1023.2
20260507050100 3 246 0.0 3.2 0.00 0.00 0.00 92 1023.4
20260507044600 3 247 0.0 3.2 0.00 0.00 0.00 92 1023.5
20260507043058 3 259 0.0 1.6 0.00 0.00 0.00 93 1023.5
20260507041601 3 249 0.0 0.0 0.00 0.00 0.00 93 1023.4
20260507040105 3 263 0.0 0.0 0.00 0.00 0.00 92 1023.5
20260507034618 3 262 0.0 0.0 0.00 0.00 0.00 92 1023.5
20260507033105 3 269 0.0 0.0 0.00 0.00 0.00 92 1023.4
20260507031553 4 237 0.0 1.6 0.00 0.00 0.00 92 1023.4
20260507030053 3 245 0.0 0.0 0.00 0.00 0.00 91 1023.2
20260507024557 4 259 0.0 0.0 0.00 0.00 0.00 90 1023.0
20260507023052 4 248 0.0 0.0 0.00 0.00 0.00 89 1022.9
20260507021558 5 263 0.0 0.0 0.00 0.00 0.00 88 1022.6
20260507020050 6 262 0.0 0.0 0.00 0.00 0.00 87 1022.5
20260507014552 6 252 0.0 0.0 0.00 0.00 0.00 85 1022.2
20260507013103 7 257 0.0 0.0 0.00 0.00 0.00 84 1022.3
20260507011548 7 243 0.0 0.0 0.00 0.00 0.00 84 1022.4
20260507010052 7 254 0.0 1.6 0.00 0.00 0.00 83 1022.5
20260507004546 7 285 0.0 3.2 0.00 0.00 0.00 80 1022.4
20260507003046 7 295 0.0 4.8 0.00 0.00 0.00 83 1022.1
20260507001606 7 271 0.0 4.8 0.00 0.00 0.00 84 1022.9
20260507000045 7 283 0.0 3.2 0.00 0.00 0.00 82 1022.6
20260506234555 7 289 0.0 3.2 0.00 0.00 0.00 81 1022.5
20260506233044 8 269 0.0 0.0 0.00 0.00 0.00 79 1022.5
20260506231543 8 292 0.0 3.2 0.00 0.00 0.00 78 1022.4
20260506230043 8 301 0.0 3.2 0.00 0.00 0.00 77 1022.4
20260506224552 8 276 0.0 0.0 0.00 0.00 0.00 74 1022.2
20260506223040 8 278 0.0 0.0 0.00 0.00 0.00 73 1022.2
20260506221540 8 237 0.0 1.6 0.00 0.00 0.00 74 1022.4
20260506220045 9 245 0.0 1.6 0.00 0.00 0.00 72 1022.3
20260506214538 9 127 0.0 1.6 0.00 0.00 0.00 74 1022.4
20260506213037 9 131 0.0 0.0 0.00 0.00 0.00 73 1022.6
20260506211540 9 179 0.0 0.0 0.00 0.00 0.00 73 1022.7
20260506210035 9 245 0.0 0.0 0.00 0.00 0.00 73 1022.7
20260506204537 8 328 0.0 0.0 0.00 0.00 0.00 75 1022.6
20260506203032 8 58 0.0 0.0 0.00 0.00 0.00 77 1023.0
20260506201531 8 203 0.0 0.0 0.00 0.00 0.00 75 1023.1
20260506200029 8 177 0.0 0.0 0.00 0.00 0.00 76 1023.0
20260506194534 8 63 0.0 1.6 0.00 0.00 0.00 79 1023.0
20260506193026 8 360 0.0 0.0 0.00 0.00 0.00 80 1023.2
20260506191526 8 323 0.0 0.0 0.00 0.00 0.00 81 1023.3
20260506190023 7 354 0.0 0.0 0.00 0.00 0.00 83 1023.5
20260506184521 7 51 0.0 0.0 0.00 0.00 0.00 88 1023.6
20260506183018 6 227 0.0 0.0 0.00 0.00 0.00 87 1023.8
20260506181514 6 292 0.0 0.0 0.00 0.00 0.00 90 1024.0
20260506180013 6 323 0.0 0.0 0.00 0.00 0.00 91 1024.0
20260506174510 5 38 0.0 0.0 0.00 0.00 0.00 90 1024.0
20260506173007 5 352 0.0 0.0 0.00 0.00 0.00 90 1023.9
20260506171504 4 307 0.0 0.0 0.00 0.00 0.00 90 1024.1
20260506170002 4 6 0.0 0.0 0.00 0.00 0.00 91 1024.0
20260506164559 3 4 0.0 0.0 0.00 0.00 0.00 92 1023.7
20260506163057 3 109 0.0 0.0 0.00 0.00 0.00 92 1023.5
20260506161555 3 317 0.0 0.0 0.00 0.00 0.00 92 1023.4
20260506160109 3 358 0.0 0.0 0.00 0.00 0.00 92 1023.4
20260506154553 -17 0.0 0.0 0.00 0.00 0.00 1023.3
20260506153053 -17 0.0 0.0 0.00 0.00 0.00 1023.3
20260506151548 -17 0.0 0.0 0.00 0.00 0.00 1023.3
20260506150048 -17 0.0 0.0 0.00 0.00 0.00 1023.3